COSMOS 2463

Last updated on Wed Jun 24 2026 00:03:38 GMT+0000 (Coordinated Universal Time)

1 36519U 10017A 26173.50494340 .00000030 00000+0 15824-4 0 9997 2 36519 82.9601 245.7990 0037515 114.6097 256.4491 13.71665944808662
UTC large
Height (km)
Speed (km/s)
/
Latitude / Longitude
Inclination (degrees)
Orbital Period (minutes)
Azimuth
Elevation
Range (km)
Doppler Factor

Next 0 passes for location: London (51.5072 / 0.1276)

No passes found over London.
COSMOS 2463